| time (UTC) | temp F | wind direction | speed MPH | gust MPH | rain 1hr in | rain 24hr in | rain mn in | humidity % | barometer mb |
| 20260504214525 | 55 | 184 | 4.0 | 14.0 | 0.00 | 0.00 | 0.00 | 45 | 996.5 |
| 20260504213033 | 55 | 169 | 5.0 | 11.0 | 0.00 | 0.00 | 0.00 | 46 | 996.5 |
| 20260504211528 | 55 | 161 | 6.0 | 18.0 | 0.00 | 0.00 | 0.00 | 47 | 996.4 |
| 20260504210018 | 55 | 166 | 10.0 | 15.0 | 0.00 | 0.00 | 0.00 | 49 | 996.7 |
| 20260504204533 | 56 | 162 | 7.0 | 15.0 | 0.00 | 0.00 | 0.00 | 48 | 997.1 |
| 20260504203021 | 56 | 179 | 5.0 | 10.0 | 0.00 | 0.00 | 0.00 | 47 | 997.2 |
| 20260504201513 | 57 | 184 | 4.0 | 9.0 | 0.00 | 0.00 | 0.00 | 44 | 997.3 |
| 20260504200011 | 57 | 196 | 2.0 | 8.0 | 0.00 | 0.00 | 0.00 | 43 | 997.4 |
| 20260504194509 | 58 | 182 | 2.0 | 6.0 | 0.00 | 0.00 | 0.00 | 47 | 997.6 |
| 20260504193005 | 56 | 254 | 2.0 | 9.0 | 0.00 | 0.00 | 0.00 | 51 | 997.8 |
| 20260504191502 | 54 | 170 | 3.0 | 12.0 | 0.00 | 0.00 | 0.00 | 56 | 998.0 |
| 20260504190002 | 54 | 186 | 7.0 | 15.0 | 0.00 | 0.00 | 0.00 | 54 | 998.1 |
| 20260504184600 | 54 | 165 | 4.0 | 11.0 | 0.00 | 0.00 | 0.00 | 54 | 998.0 |
| 20260504183100 | 55 | 148 | 7.0 | 12.0 | 0.00 | 0.00 | 0.00 | 54 | 998.1 |
| 20260504181600 | 53 | 155 | 5.0 | 10.0 | 0.00 | 0.00 | 0.00 | 58 | 998.1 |
| 20260504180056 | 53 | 179 | 5.0 | 13.0 | 0.00 | 0.00 | 0.00 | 57 | 998.2 |
| 20260504174557 | 52 | 177 | 4.0 | 9.0 | 0.00 | 0.00 | 0.00 | 61 | 998.3 |
| 20260504173050 | 52 | 189 | 6.0 | 11.0 | 0.00 | 0.00 | 0.00 | 61 | 998.5 |
| 20260504171550 | 51 | 171 | 6.0 | 12.0 | 0.00 | 0.00 | 0.00 | 63 | 998.7 |
| 20260504081530 | 33 | 170 | 2.0 | 4.0 | 0.00 | 0.00 | 0.00 | 69 | 1000.6 |
| 20260504050001 | 37 | 180 | 1.0 | 2.0 | 0.00 | 0.00 | 0.00 | 54 | 1001.0 |
| 20260504044606 | 37 | 180 | 0.0 | 1.0 | 0.00 | 0.00 | 0.00 | 52 | 1001.2 |
| 20260504043059 | 38 | 180 | 0.0 | 0.0 | 0.00 | 0.00 | 0.00 | 50 | 1001.4 |
| 20260504041555 | 38 | 180 | 0.0 | 1.0 | 0.00 | 0.00 | 0.00 | 51 | 1001.5 |
| 20260504040104 | 38 | 180 | 0.0 | 1.0 | 0.00 | 0.00 | 0.00 | 50 | 1001.7 |
| 20260504034611 | 39 | 180 | 0.0 | 1.0 | 0.00 | 0.00 | 0.00 | 50 | 1001.8 |
| 20260504033048 | 39 | 180 | 1.0 | 2.0 | 0.00 | 0.00 | 0.00 | 50 | 1001.9 |
| 20260504031548 | 39 | 180 | 1.0 | 3.0 | 0.00 | 0.00 | 0.00 | 48 | 1002.0 |
| 20260504024546 | 40 | 180 | 0.0 | 1.0 | 0.00 | 0.00 | 0.00 | 45 | 1002.3 |
| 20260504023043 | 40 | 180 | 0.0 | 1.0 | 0.00 | 0.00 | 0.00 | 45 | 1002.4 |
| 20260504021546 | 41 | 180 | 0.0 | 0.0 | 0.00 | 0.00 | 0.00 | 44 | 1002.5 |
| 20260504020040 | 41 | 180 | 0.0 | 1.0 | 0.00 | 0.00 | 0.00 | 44 | 1002.6 |
| 20260504014539 | 42 | 180 | 0.0 | 0.0 | 0.00 | 0.00 | 0.00 | 42 | 1002.7 |
| 20260504013048 | 43 | 180 | 0.0 | 0.0 | 0.00 | 0.00 | 0.00 | 44 | 1002.8 |
| 20260504011540 | 44 | 180 | 0.0 | 0.0 | 0.00 | 0.00 | 0.00 | 43 | 1002.9 |
| 20260504010037 | 45 | 180 | 0.0 | 0.0 | 0.00 | 0.00 | 0.00 | 38 | 1002.8 |
| 20260504004537 | 46 | 180 | 0.0 | 0.0 | 0.00 | 0.00 | 0.00 | 39 | 1002.7 |
| 20260504003036 | 47 | 180 | 0.0 | 0.0 | 0.00 | 0.00 | 0.00 | 36 | 1002.6 |
| 20260504001536 | 48 | 180 | 0.0 | 1.0 | 0.00 | 0.00 | 0.00 | 36 | 1002.7 |
| 20260504000035 | 49 | 180 | 0.0 | 2.0 | 0.00 | 0.00 | 0.00 | 34 | 1002.7 |
| 20260503234534 | 49 | 180 | 0.0 | 2.0 | 0.00 | 0.00 | 0.00 | 33 | 1002.7 |
| 20260503233037 | 49 | 179 | 1.0 | 4.0 | 0.00 | 0.00 | 0.00 | 32 | 1002.7 |
| 20260503231534 | 50 | 132 | 1.0 | 6.0 | 0.00 | 0.00 | 0.00 | 31 | 1002.8 |
| 20260503230036 | 50 | 257 | 1.0 | 6.0 | 0.00 | 0.00 | 0.00 | 31 | 1002.8 |
| 20260503224532 | 51 | 253 | 1.0 | 8.0 | 0.00 | 0.00 | 0.00 | 30 | 1002.8 |
| 20260503223030 | 51 | 63 | 1.0 | 5.0 | 0.00 | 0.00 | 0.00 | 30 | 1002.9 |
| 20260503221531 | 51 | 189 | 2.0 | 6.0 | 0.00 | 0.00 | 0.00 | 30 | 1003.0 |
| 20260503220028 | 52 | 234 | 2.0 | 16.0 | 0.00 | 0.00 | 0.00 | 29 | 1003.1 |